Flag for New Zealand Weather past 2 weeks in Wellington, New Zealand

Now
54 °F

Light rain. Overcast.


Feels Like: 48 °F
Forecast: 53 / 56 °F
Wind: 21 mph from Northeast

Location: Wellington Airport

Current Time: Aug 3, 2015 at 10:48:32 AM

Latest Report: Aug 3, 2015 at 10:00 AM


Visibility: 6 mi

Pressure: 29.98 "Hg

Humidity: 94%

Dew point: 52 °F

Location of WellingtonLocation

Historic Weather in Wellington — Graph

°F

Wellington temperature yesterday

Maximum temperature yesterday: 55 °F (at 9:00 AM)
Minimum temperature yesterday: 54 °F (at 12:00 AM)
Average temperature yesterday: 55 °F

Past Weeks' High & Low Weather Summary

 TemperatureHumidityPressure
High59 °F (Jul 27, 3:00 PM)100% (Jul 25, 7:00 AM)30.57 "Hg (Jul 25, 7:00 AM)
Low37 °F (Jul 25, 5:30 AM)41% (Jul 21, 2:00 PM)29.53 "Hg (Jul 28, 1:00 PM)
Average51 °F75%30.13 "Hg
* Reported Jul 19 9:00 AM — Aug 3 9:00 AM, Wellington, Weather by CustomWeather, © 2015

Note: Actual official high and low records may vary slightly from our data, if they occured in-between our weather recording intervals... More about our weather records

Advertising

Wellington weather history for previous 24 hours

 ConditionsComfort  
Time TempWeatherWind HumidityBarometerVisibility
9:00 AM
Mon, Aug 3
55 °FLight rain. Overcast.25 mph82%29.98 "HgN/A
8:30 AM55 °FLight rain. Overcast.28 mph82%29.98 "Hg6 mi
8:00 AM55 °FScattered showers. Overcast.28 mph77%30.01 "HgN/A
7:30 AM55 °FScattered showers. Overcast.26 mph82%30.01 "HgN/A
7:00 AM55 °FMostly cloudy.25 mph82%30.01 "HgN/A
6:30 AM55 °FPartly sunny.24 mph82%30.01 "HgN/A
6:00 AM54 °FPartly cloudy.25 mph88%30.01 "HgN/A
5:30 AM54 °FPassing clouds.26 mph82%30.01 "HgN/A
5:00 AM55 °FPassing clouds.22 mph77%30.04 "HgN/A
4:30 AM55 °FPassing clouds.28 mph72%30.04 "HgN/A
4:00 AM55 °FOvercast.21 mph77%30.04 "HgN/A
3:30 AM55 °FOvercast.21 mph77%30.04 "HgN/A
3:00 AM55 °FPassing clouds.21 mph82%30.07 "HgN/A
2:30 AM55 °FOvercast.17 mph82%30.07 "HgN/A
2:00 AM54 °FMostly cloudy.18 mph88%30.09 "HgN/A
1:30 AM54 °FPassing clouds.21 mph88%30.09 "HgN/A
1:00 AM55 °FPassing clouds.22 mph77%30.09 "HgN/A
12:30 AM55 °FPassing clouds.20 mph77%30.09 "HgN/A
12:00 AM55 °FPassing clouds.21 mph77%30.09 "HgN/A
11:30 PM
Sun, Aug 2
55 °FPassing clouds.23 mph77%30.09 "HgN/A
11:00 PM55 °FPassing clouds.21 mph77%30.09 "HgN/A
10:30 PM55 °FOvercast.20 mph77%30.09 "HgN/A
10:00 PM55 °FCool.22 mph72%30.09 "HgN/A
9:30 PM55 °FCool.23 mph72%30.09 "HgN/A
9:00 PM55 °FPassing clouds.20 mph72%30.07 "HgN/A
8:30 PM55 °FPassing clouds.20 mph82%30.09 "HgN/A
8:00 PM55 °FPassing clouds.21 mph77%30.07 "HgN/A
7:30 PM55 °FPassing clouds.22 mph77%30.07 "HgN/A
7:00 PM55 °FPassing clouds.23 mph77%30.07 "HgN/A
6:30 PM55 °FPassing clouds.21 mph77%30.07 "HgN/A
6:00 PM55 °FPassing clouds.17 mph77%30.07 "HgN/A
5:30 PM55 °FPassing clouds.20 mph77%30.07 "HgN/A
5:00 PM55 °FPassing clouds.20 mph77%30.07 "HgN/A
4:30 PM55 °FPassing clouds.25 mph77%30.07 "HgN/A
4:00 PM55 °FMostly cloudy.22 mph77%30.07 "HgN/A
3:30 PM55 °FPartly sunny.20 mph77%30.07 "HgN/A
3:00 PM55 °FPartly sunny.26 mph77%30.07 "HgN/A
2:30 PM55 °FPartly sunny.25 mph77%30.07 "HgN/A
2:00 PM55 °FBroken clouds.26 mph72%30.07 "HgN/A
1:30 PM55 °FPassing clouds.24 mph72%30.07 "HgN/A
1:00 PM55 °FPassing clouds.25 mph72%30.07 "HgN/A
12:30 PM55 °FPassing clouds.25 mph72%30.07 "HgN/A
12:00 PM55 °FPartly sunny.23 mph82%30.07 "HgN/A
11:30 AM55 °FPartly sunny.21 mph82%30.09 "HgN/A
11:00 AM55 °FBroken clouds.23 mph77%30.09 "HgN/A
10:30 AM55 °FBroken clouds.24 mph77%30.09 "HgN/A
10:00 AM55 °FBroken clouds.22 mph82%30.07 "HgN/A
Weather by CustomWeather, © 2015

See weather overviewHow to use our weather pages